Location: Broadmoor
(37.6867°N, 122.4828°W)
Time: 18:03:45
(UTC+00:00)

BREEZE-M DEB (TANK) - Pass Details

Date: 03 August 2024
Orbit: 321 x 16356 km, 49.5° (Epoch: 06 September)

Event Time Altitude Azimuth Distance (km) Brightness Sun altitude
Exits shadow 12:22:27 - 216° (SW) 3,979 6.1 -10.2°
Reaches altitude 10° 12:23:16 10° 215° (SW) 3,604 5.9 -10.1°
Maximum altitude 12:29:44 40° 147° (SSE) 902 3.4 -9.0°
Drops below altitude 10° 12:32:23 10° 74° (ENE) 1,475 6.0 -8.6°
Sets 12:33:50 0° 64° (ENE) 2,152 7.9 -8.3°
